Weather in Andriivka

Ukraine / Kharkiv Region     49°32′05″N   36°37′17″E
temp.,
°C
wind,
m/s
gust,
m/s
humid.,
%
clouds,
%
prec.,
mm/h
press.,
hPa
HPBL,
m
20 april, tue
tue2000:00+9ne1176100 0.0 101310
03:00+9ene1178100 0.0 101214
06:00+9ene1184100 0.3 101033
09:00+11ene5879100 0.6 1009612
12:00+12ese4680100 1.8 1006607
15:00+10ne3695100 6.5 1004408
18:00+10e6995100 9.7 1001682
21:00+10ese3695100 12.3 1000382
21 april, wed
wed2100:00+9wnw2395100 0.3 1000180
03:00+8wnw61191100 0.6 1005806
06:00+8w4893100 0.2 1008580
09:00+8wsw6988100 0.3 1011585
12:00+12wsw8105497 0.0 10121949
15:00+12wsw6105694 0.1 10141563
18:00+12wsw586136 0.4 10141182
21:00+8sw358019 1.1 101771
22 april, thu
thu2200:00+7wsw34855 0.3 101865
03:00+6sw22855 0.3 101924
06:00+6ssw35885 0.0 101988
09:00+12sw57715 0.0 1020545
12:00+15sw56549 0.7 10201672
15:00+17sw5645100 1.1 10192300
18:00+14ssw2260100 0.1 101922
21:00+13s3458100 0.1 102056
23 april, fri
fri2300:00+11ssw366980 0.0 1020101
03:00+11s3675100 0.0 1020152
06:00+9ssw37865 0.0 1020173
09:00+13ssw57675 0.0 1020660
12:00+16ssw78485 0.0 10191841
15:00+17ssw5849100 0.0 10172326
18:00+15ssw5105286 0.0 1016398
21:00+12sw51166100 0.0 1016297
24 april, sat
sat2400:00+10sw3585100 0.5 1015107
03:00+9sw4893100 2.6 1014614
06:00+7wnw6989100 3.8 1015735
09:00+8nw57695 3.8 1016912
12:00+11w574897 0.0 10172153
15:00+12w684195 0.0 10162419
18:00+11wsw6845100 0.0 10161498
21:00+7w4866100 0.0 1018260